"Pseudo-MPEC" for P11JUYN
Created 2023 Sep 23 21:22:17 UT using Find_Orb
Click here for an explanation of pseudo-MPECs
Astrometry: P11JUYN* C2023 09 18jR*kgor,)XmET`919ttdc4q%IWB.Y3[$??I,5umS:d-TWsm+m1H(
F51 P11JUYN C2023 09 18((+9JmL7N*1mSq\(d!\
AstrometryX?C2PY\dj
redacted;*FL2+
F51 P11JUYN C2023 09 18?6xl(PmM*d02OeHa*FNZb-R!L$g1xXcD:it-qXq'ElmP
click9j0
F51 P11JUYN C2023 09 18Vw'6)(=bIN`[8*u[$\R].3\b%O$UCn@SFGiO),k,5QhM5=.:;QbN
F51 P11JUYN C2023 09 183J.O=9w]lw^\MABrNWJ^_3GS3b^OjKxBOp[-
hereN$ld+3,
for#;
F51 P11JUYN C2023 09 18'WgkItXe3.V
explanation8b.Z7$pqfDuXbEH*af1riR=l'PXn8h
F51 P11JUYN KC2023 09 20.32420802 29 05.878+12 43 50.77 ~9K8q 22.31GVNEOCPV06 P11JUYN KC2023 09 20.32623502 29 05.968+12 43 51.10 ~9KBq 22.00GVNEOCPI52 P11JUYN KC2023 09 20.33148802 29 06.112+12 43 50.77 ~9K8q 21.73GVNEOCPV06 P11JUYN KC2023 09 20.34361802 29 06.436+12 43 50.88 ~9K8q 22.82GVNEOCPV06 P11JUYN KC2023 09 20.34814002 29 06.608+12 43 50.99 ~9KBq 21.32GVNEOCPI52 P11JUYN KC2023 09 20.35089602 29 06.652+12 43 50.56 ~9K8q 21.70GVNEOCPV06 P11JUYN KC2023 09 20.36077802 29 06.961+12 43 50.23 ~9KBq 21.40GVNEOCPI52 P11JUYN KC2023 09 23.31954102 30 32.321+12 42 30.06 ~9N97 21.51GVNEOCPI52 P11JUYN KC2023 09 23.33815302 30 32.710+12 42 28.58 ~9N97 21.96GVNEOCPI52 P11JUYN KC2023 09 23.35334402 30 33.070+12 42 28.40 ~9N97 21.73GVNEOCPI52 P11JUYN KC2023 09 23.36591802 30 33.286+12 42 27.83 ~9N97 23.27GVNEOCPI52 Station data: (F51) Pan-STARRS 1, Haleakala (N20.707234 W156.255910) US/Hawaii. Observers J. Bulger, T. Lowe, A. Schultz, M. Willman. Measurers K. Chambers, S. Chastel, T. de Boer, L. Denneau, J. Fairlamb, H. Flewelling, M. Huber, C.-C. Lin, E. Magnier, Y. Ramanjooloo, R. Wainscoat, R. Weryk. 1.8-m Ritchey-Chrétien + CCD. (I52) Steward Observatory, Mt. Lemmon Station (N32.442544 W110.788920) US/Arizona. Observers T. A. Pruyne, B. M. Africano, E. J. Christensen, G. A. Farneth, D. C. Fuls, A. R. Gibbs, A. D. Grauer, H. Gröller, J. A. Johnson, R. A. Kowalski, S. M. Larson, G. J. Leonard, D. Rankin, R. L. Seaman, F. C. Shelly, K. W. Wierzchoś. 1.0-m prime focus + CCD. (V06) Catalina Sky Survey-Kuiper (N32.416844 W110.732550) US/Arizona. Observers T. A. Pruyne, B. M. Africano, E. J. Christensen, G. A. Farneth, D. C. Fuls, A. R. Gibbs, A. D. Grauer, H. Gröller, J. A. Johnson, R. A. Kowalski, S. M. Larson, G. J. Leonard, D. Rankin, R. L. Seaman, F. C. Shelly, K. W. Wierzchoś. 1.55-m reflector + CCD. Orbital elements: P11JUYN Perihelion 2023 Oct 28.27927 +/- 5.38 TT = 6:42:08 (JD 2460245.77927) Epoch 2023 Sep 23.0 TT = JDT 2460210.5 Earth MOID: 0.6308 AutoNEOCP M 350.68200562 +/- 1.7 (J2000 ecliptic) n 0.26412098 +/- 0.0101 Peri. 230.81702 +/- 3.2 a 2.40584391 +/- 0.0615 Node 164.65818 +/- 0.33 e 0.3250171 +/- 0.012 Incl. 1.72323 +/- 0.021 P 3.73 H 20.53 G 0.15 U 9.7 q 1.62390338 +/- 0.0126 Q 3.18778443 +/- 0.11 From 17 observations 2023 Sept. 18-23; mean residual 0".21
Residuals in arcseconds: 230918 F51 .11+ .15+ 230920 V06 .38- .03- 230920 I52 .30+ .44- 230918 F51 .11- .04- 230920 I52 .08+ .31+ 230923 I52 .12+ .37+ 230918 F51 .04+ .02- 230920 V06 .00 .02- 230923 I52 .11- .39- 230918 F51 .06- .03+ 230920 V06 .30- .13+ 230923 I52 .38+ .03+ 230918 F51 .05+ .02- 230920 I52 .34+ .27+ 230923 I52 .39- .02- 230918 F51 .03- .12- 230920 V06 .15- .16- Ephemerides (geocentric): Date (UTC) HH RA Dec delta r elong mag " sig PA ---- -------- ------------ ------------ ------ ------ ----- --- -------- 2023 09 23 21 02 30 45.798 +12 42 07.27 .74054 1.6452 140.8 22.0 .197 26 2023 09 23 22 02 30 46.809 +12 42 05.12 .74030 1.6452 140.8 22.0 .208 26 2023 09 23 23 02 30 47.816 +12 42 02.95 .74006 1.6451 140.9 22.0 .219 26 2023 09 24 00 02 30 48.819 +12 42 00.76 .73981 1.6451 140.9 22.0 .230 25 2023 09 24 01 02 30 49.819 +12 41 58.56 .73957 1.6450 140.9 22.0 .242 25 2023 09 24 02 02 30 50.814 +12 41 56.33 .73933 1.6450 141.0 22.0 .254 24 2023 09 24 03 02 30 51.806 +12 41 54.08 .73909 1.6449 141.0 22.0 .266 24 2023 09 24 04 02 30 52.794 +12 41 51.81 .73885 1.6449 141.0 22.0 .278 24 2023 09 24 05 02 30 53.777 +12 41 49.52 .73861 1.6448 141.1 22.0 .290 24 2023 09 24 06 02 30 54.757 +12 41 47.21 .73837 1.6448 141.1 22.0 .302 24 2023 09 24 07 02 30 55.734 +12 41 44.88 .73813 1.6447 141.2 22.0 .315 23 2023 09 24 08 02 30 56.706 +12 41 42.53 .73789 1.6447 141.2 22.0 .328 23 2023 09 24 09 02 30 57.674 +12 41 40.16 .73765 1.6446 141.2 22.0 .341 23 2023 09 24 10 02 30 58.639 +12 41 37.77 .73741 1.6445 141.3 22.0 .355 23 2023 09 24 11 02 30 59.600 +12 41 35.36 .73717 1.6445 141.3 22.0 .368 23 2023 09 24 12 02 31 00.557 +12 41 32.93 .73693 1.6444 141.3 22.0 .382 23 2023 09 24 13 02 31 01.509 +12 41 30.48 .73669 1.6444 141.4 22.0 .396 23 2023 09 24 14 02 31 02.459 +12 41 28.01 .73646 1.6443 141.4 22.0 .410 23 2023 09 24 15 02 31 03.404 +12 41 25.52 .73622 1.6443 141.5 22.0 .424 23 2023 09 24 16 02 31 04.345 +12 41 23.00 .73598 1.6443 141.5 22.0 .439 22 2023 09 24 17 02 31 05.283 +12 41 20.47 .73574 1.6442 141.5 22.0 .454 22 2023 09 24 18 02 31 06.216 +12 41 17.92 .73550 1.6442 141.6 22.0 .469 22 2023 09 24 19 02 31 07.146 +12 41 15.35 .73527 1.6441 141.6 22.0 .484 22 2023 09 24 20 02 31 08.072 +12 41 12.76 .73503 1.6441 141.6 22.0 .499 22 2023 09 24 21 02 31 08.994 +12 41 10.15 .73479 1.6440 141.7 22.0 .515 22 2023 09 24 22 02 31 09.912 +12 41 07.51 .73456 1.6440 141.7 22.0 .531 22 2023 09 24 23 02 31 10.826 +12 41 04.86 .73432 1.6439 141.7 22.0 .547 22 2023 09 25 00 02 31 11.736 +12 41 02.19 .73408 1.6439 141.8 22.0 .563 22 2023 09 25 01 02 31 12.643 +12 40 59.50 .73385 1.6438 141.8 22.0 .579 22 2023 09 25 02 02 31 13.545 +12 40 56.78 .73361 1.6438 141.9 22.0 .596 22 2023 09 25 03 02 31 14.444 +12 40 54.05 .73338 1.6437 141.9 22.0 .613 22 2023 09 25 04 02 31 15.339 +12 40 51.30 .73314 1.6437 141.9 22.0 .630 22 2023 09 25 05 02 31 16.230 +12 40 48.52 .73291 1.6436 142.0 22.0 .648 22 2023 09 25 06 02 31 17.117 +12 40 45.73 .73267 1.6436 142.0 22.0 .665 22 2023 09 25 07 02 31 18.000 +12 40 42.92 .73244 1.6435 142.0 22.0 .683 22 2023 09 25 08 02 31 18.879 +12 40 40.08 .73220 1.6435 142.1 22.0 .701 23 2023 09 25 09 02 31 19.755 +12 40 37.23 .73197 1.6434 142.1 22.0 .719 23 2023 09 25 10 02 31 20.626 +12 40 34.36 .73174 1.6434 142.2 22.0 .738 23 2023 09 25 11 02 31 21.494 +12 40 31.47 .73150 1.6433 142.2 22.0 .756 23 2023 09 25 12 02 31 22.358 +12 40 28.55 .73127 1.6433 142.2 22.0 .775 23 2023 09 25 13 02 31 23.217 +12 40 25.62 .73103 1.6432 142.3 22.0 .795 23 2023 09 25 14 02 31 24.073 +12 40 22.67 .73080 1.6432 142.3 22.0 .814 23 2023 09 25 15 02 31 24.926 +12 40 19.69 .73057 1.6431 142.3 22.0 .834 23 2023 09 25 16 02 31 25.774 +12 40 16.70 .73034 1.6431 142.4 22.0 .853 23 2023 09 25 17 02 31 26.618 +12 40 13.69 .73010 1.6430 142.4 22.0 .874 23 2023 09 25 18 02 31 27.458 +12 40 10.65 .72987 1.6430 142.5 22.0 .894 23 2023 09 25 19 02 31 28.295 +12 40 07.60 .72964 1.6429 142.5 22.0 .915 23 2023 09 25 20 02 31 29.128 +12 40 04.53 .72941 1.6429 142.5 22.0 .935 23